Showing default

O3B FM12, 40350

Orbit data source: Space-Track

O3B FM12, 40350 is a payload satellite owned by O3B (JE) that was launched on Thu, 18 Dec 2014 UTC via a SOYUZ-ST-B launch vehicle from the French Guiana (FRGUI). Payload-class satellites include a variety of spacecraft equipped with specific instruments for various scientific and technological missions. These include communications satellites like Starlink; space stations such as the ISS; scientific satellites like the Hubble; Earth observation satellites from companies like Planet Labs, Umbra, and HawkEye 360; GPS; miniature CubeSats for education and research; and military/defense satellites.

Loading next visibility...
Identifier
40350, 2014-083C
Orbit
Active
Country
Flag of UnknownUnknown / O3B
Related business
Manufacturer
Thales Alenia
Mission
Operational Commercial Communications
Bus & Motor
PRISMA?, LS-400 AOCS?
Mass
700 kg wet, ~500 kg dry
Launch date (UTC)
2014-12-18 (11 years ago)
Launch vehicle
SOYUZ-ST-B
Launch site
French Guiana (FRGUI)
Object type
Payload
Rocket body
Debris
Shape & HBR
Trap Box + 2 Pan, 6.0 m
Radar Cross Section
21.980 m², Large (>1 m²)

Expand to show TLE details & history
Last TLE update: 10 hours ago

TLE from 10 hours ago
0 O3B FM12
1 40350U 14083C   25294.92965808 -.00000023  00000-0  00000+0 0  9992
2 40350   0.0504   4.5160 0002815 201.9654 153.5106  5.00115898198008
Epoch: 2025-10-21T22:18Z
TLE epoch observation values (Epoch: 2025-10-21T22:18:42.458Z)
Latitude
0.00052°
Longitude
-5.28739°
Altitude
8,068.006 km
Speed
5.253 km/s
True Right ascension
00h 00m 00s
True Declination
0° 00' 02"
Sunlit
Object was in daylight at epoch
Visualization orbit readout
Latitude
Unknown
Longitude
Unknown
Altitude
Unknown
Speed
Unknown
Apparent Right ascension
Unknown
Apparent Declination
Unknown
Sunlit
N/A
Visualization observer readout
Local Sidereal Time
03:04:54
Azimuth
Unknown
Elevation
Unknown
Doppler factor
Unknown
Orbital elements
Apogee altitude
8,073.008 km
Perigee altitude
8,064.874 km
Semi-major axis
14,447.078 km
Eccentricity
0.00028
Inclination
0.0504°
RAAN
4.516°
Arg. of periapsis
201.9654°
True anomaly
153.52498°
Mean anomaly
153.5106°
Eccentric anomaly
153.51779°
Mean motion
1.24989 °/min
Orbital period
288.02 mins
BSTAR
0
Loading maneuver chart data...
Computing Atmospheric mass density...
Loading historical data...
Loading historical data...
Loading historical data...
Loading historical data...
Loading historical data...
Loading historical data...
Loading historical data...
Other satellites on launch #83 in the year 2014 (2014-12-18 UTC)

Documentation

Showing up to 5 results
|